Location: Newark
(60.7728°N, 46.2261°E)
Time: 02:31:31
(UTC+00:00)

ISS - Pass Details

Date: 29 September 2019
Orbit: 411 x 421 km, 51.6° (Epoch: 16 October)

Event Time Altitude Azimuth Distance (km) Brightness Sun altitude
Rises 17:02:35 0° 255° (WSW) 2,347 0.7 -18.2°
Reaches altitude 10° 17:05:20 10° 230° (SW) 1,483 -0.7 -18.5°
Enters shadow 17:06:54 14° 203° (SSW) 1,242 -1.5 -18.7°
